When you browse on this site, cookies collect data to enhance your experience and personalize the content and advertising you see.
Visit our Privacy Policy to learn more. By continuing to use the site, you agree to this use of cookies and data.
  • In Austria
  • List of Countries
  • For 7 days
  • Water Temperature
  • Satellite Maps
  • Weather Map
  • News
  • Weather Widgets
  • user-avatar
    Login

    Hourly Weather Telavi

    Today, 19 January, Saturday

    Time Temperature Precipitation Wind Pressure Humidity
    00:00 +1°C° 0 mm 1 mps 711 mmHg 71%
    01:00 +1°C° 0 mm 1 mps 711 mmHg 70%
    02:00 -2°C° 0 mm 2 mps 710 mmHg 69%
    03:00 -2°C° 0 mm 2 mps 710 mmHg 68%
    04:00 -2°C° 0 mm 2 mps 710 mmHg 64%
    05:00 -2°C° 0 mm 2 mps 710 mmHg 61%
    06:00 -3°C° 0 mm 2 mps 709 mmHg 58%
    07:00 -2°C° 0 mm 2 mps 709 mmHg 52%
    08:00 -1°C° 0 mm 2 mps 709 mmHg 47%
    09:00 +1°C° 0 mm 2 mps 709 mmHg 42%
    10:00 +3°C° 0 mm 2 mps 709 mmHg 36%
    11:00 +5°C° 0 mm 2 mps 709 mmHg 31%
    12:00 +6°C° 0 mm 2 mps 709 mmHg 25%
    13:00 +7°C° 0 mm 2 mps 709 mmHg 25%
    14:00 +7°C° 0 mm 2 mps 709 mmHg 24%
    15:00 +8°C° 0 mm 2 mps 709 mmHg 23%
    16:00 +6°C° 0 mm 2 mps 709 mmHg 27%
    17:00 +5°C° 0 mm 2 mps 709 mmHg 32%
    18:00 +3°C° 0 mm 2 mps 710 mmHg 36%
    19:00 +2°C° 0 mm 2 mps 710 mmHg 39%
    20:00 +2°C° 0 mm 2 mps 710 mmHg 43%
    21:00 +1°C° 0 mm 2 mps 710 mmHg 47%
    22:00 +1°C° 0 mm 2 mps 710 mmHg 48%
    23:00 +1°C° 0 mm 2 mps 710 mmHg 49%

    Tomorrow, 20 January, Sunday

    Time Temperature Precipitation Wind Pressure Humidity
    00:00 -1°C° 0 mm 2 mps 711 mmHg 51%
    01:00 -1°C° 0 mm 2 mps 711 mmHg 50%
    02:00 -1°C° 0 mm 2 mps 711 mmHg 49%
    03:00 -1°C° 0 mm 2 mps 711 mmHg 49%
    04:00 -1°C° 0 mm 2 mps 711 mmHg 47%
    05:00 -1°C° 0 mm 2 mps 711 mmHg 46%
    06:00 -1°C° 0 mm 2 mps 711 mmHg 45%
    07:00 +2°C° 0 mm 1 mps 712 mmHg 43%
    08:00 +2°C° 0 mm 1 mps 712 mmHg 40%
    09:00 +3°C° 0 mm 1 mps 712 mmHg 38%
    10:00 +4°C° 0 mm 1 mps 712 mmHg 35%
    11:00 +5°C° 0 mm 1 mps 712 mmHg 32%
    12:00 +6°C° 0 mm 1 mps 712 mmHg 29%
    13:00 +6°C° 0 mm 1 mps 712 mmHg 28%
    14:00 +6°C° 0 mm 0 mps 711 mmHg 28%
    15:00 +6°C° 0 mm 0 mps 711 mmHg 27%
    16:00 +5°C° 0 mm 0 mps 712 mmHg 30%
    17:00 +3°C° 0 mm 0 mps 712 mmHg 33%
    18:00 +2°C° 0 mm 0 mps 712 mmHg 36%
    19:00 +3°C° 0 mm 1 mps 712 mmHg 37%
    20:00 +2°C° 0 mm 1 mps 712 mmHg 39%
    21:00 +2°C° 0 mm 1 mps 713 mmHg 40%
    22:00 +2°C° 0 mm 1 mps 713 mmHg 42%
    23:00 +1°C° 0 mm 1 mps 713 mmHg 43%

    Day after tomorrow, 21 January, Monday

    Time Temperature Precipitation Wind Pressure Humidity
    00:00 +1°C° 0 mm 1 mps 713 mmHg 44%
    01:00 +1°C° 0 mm 1 mps 713 mmHg 45%
    02:00 +1°C° 0 mm 1 mps 713 mmHg 45%
    03:00 0°C° 0 mm 1 mps 713 mmHg 46%
    04:00 0°C° 0 mm 1 mps 713 mmHg 46%
    05:00 0°C° 0 mm 1 mps 712 mmHg 47%
    06:00 0°C° 0 mm 1 mps 712 mmHg 47%
    07:00 0°C° 0 mm 1 mps 712 mmHg 45%
    08:00 +1°C° 0 mm 1 mps 712 mmHg 43%
    09:00 +2°C° 0 mm 1 mps 712 mmHg 41%
    10:00 +3°C° 0 mm 1 mps 712 mmHg 38%
    11:00 +3°C° 0 mm 0 mps 711 mmHg 35%
    12:00 +4°C° 0 mm 0 mps 710 mmHg 32%
    13:00 +6°C° 0 mm 1 mps 710 mmHg 32%
    14:00 +6°C° 0 mm 1 mps 710 mmHg 31%
    15:00 +6°C° 0 mm 1 mps 709 mmHg 30%
    16:00 +5°C° 0 mm 1 mps 709 mmHg 34%
    17:00 +2°C° 0 mm 0 mps 709 mmHg 38%
    18:00 +1°C° 0 mm 0 mps 710 mmHg 42%
    19:00 +2°C° 0 mm 1 mps 710 mmHg 42%
    20:00 +2°C° 0 mm 1 mps 710 mmHg 43%
    21:00 +1°C° 0 mm 1 mps 710 mmHg 44%
    22:00 +1°C° 0 mm 1 mps 709 mmHg 45%
    23:00 +1°C° 0 mm 1 mps 709 mmHg 46%

    22 January, Tuesday

    Time Temperature Precipitation Wind Pressure Humidity
    00:00 +1°C° 0 mm 1 mps 709 mmHg 46%
    01:00 -1°C° 0 mm 2 mps 709 mmHg 46%
    02:00 -1°C° 0 mm 2 mps 709 mmHg 46%
    03:00 -2°C° 0 mm 2 mps 709 mmHg 47%
    04:00 -2°C° 0 mm 2 mps 709 mmHg 46%
    05:00 -2°C° 0 mm 2 mps 708 mmHg 46%
    06:00 -2°C° 0 mm 2 mps 708 mmHg 45%
    07:00 -1°C° 0 mm 3 mps 708 mmHg 43%
    08:00 0°C° 0 mm 3 mps 708 mmHg 40%
    09:00 +1°C° 0 mm 3 mps 709 mmHg 37%
    10:00 +3°C° 0 mm 4 mps 708 mmHg 33%
    11:00 +5°C° 0 mm 4 mps 708 mmHg 30%
    12:00 +6°C° 0 mm 5 mps 708 mmHg 27%
    13:00 +7°C° 0 mm 5 mps 708 mmHg 27%
    14:00 +7°C° 0 mm 5 mps 708 mmHg 28%
    15:00 +7°C° 0 mm 4 mps 707 mmHg 28%
    16:00 +6°C° 0 mm 4 mps 708 mmHg 33%
    17:00 +4°C° 0 mm 3 mps 708 mmHg 38%
    18:00 +3°C° 0 mm 2 mps 708 mmHg 43%
    19:00 +3°C° 0 mm 2 mps 708 mmHg 46%
    20:00 +2°C° 0 mm 2 mps 709 mmHg 49%
    21:00 +2°C° 0 mm 2 mps 709 mmHg 51%
    22:00 +2°C° 0 mm 2 mps 709 mmHg 52%
    23:00 +1°C° 0 mm 2 mps 709 mmHg 52%

    23 January, Wednesday

    Time Temperature Precipitation Wind Pressure Humidity
    00:00 +2°C° 0 mm 1 mps 709 mmHg 53%
    01:00 +2°C° 0 mm 1 mps 709 mmHg 52%
    02:00 +1°C° 0 mm 1 mps 709 mmHg 52%
    03:00 +1°C° 0 mm 1 mps 709 mmHg 51%
    04:00 +1°C° 0 mm 1 mps 709 mmHg 50%
    05:00 +1°C° 0 mm 1 mps 709 mmHg 49%
    06:00 +1°C° 0 mm 1 mps 709 mmHg 49%
    07:00 +2°C° 0 mm 1 mps 709 mmHg 46%
    08:00 +2°C° 0 mm 1 mps 709 mmHg 43%
    09:00 +3°C° 0 mm 1 mps 709 mmHg 41%
    10:00 +4°C° 0 mm 1 mps 709 mmHg 38%
    11:00 +5°C° 0 mm 1 mps 709 mmHg 35%
    12:00 +6°C° 0 mm 1 mps 708 mmHg 32%
    13:00 +6°C° 0 mm 1 mps 708 mmHg 32%
    14:00 +7°C° 0 mm 1 mps 708 mmHg 31%
    15:00 +6°C° 0 mm 0 mps 708 mmHg 31%
    16:00 +5°C° 0 mm 0 mps 708 mmHg 34%
    17:00 +3°C° 0 mm 0 mps 708 mmHg 37%
    18:00 +2°C° 0 mm 0 mps 709 mmHg 40%
    19:00 +3°C° 0 mm 1 mps 709 mmHg 41%
    20:00 +3°C° 0 mm 1 mps 709 mmHg 42%
    21:00 +2°C° 0 mm 1 mps 709 mmHg 43%
    22:00 +2°C° 0 mm 1 mps 709 mmHg 44%
    23:00 +2°C° 0 mm 1 mps 709 mmHg 45%

    24 January, Thursday

    Time Temperature Precipitation Wind Pressure Humidity
    00:00 +2°C° 0 mm 1 mps 709 mmHg 46%
    01:00 +1°C° 0 mm 1 mps 709 mmHg 46%
    02:00 +1°C° 0 mm 1 mps 709 mmHg 47%
    03:00 +1°C° 0 mm 1 mps 709 mmHg 47%
    04:00 +1°C° 0 mm 1 mps 709 mmHg 48%
    05:00 +1°C° 0 mm 1 mps 709 mmHg 48%
    06:00 +1°C° 0 mm 1 mps 709 mmHg 49%
    07:00 +2°C° 0 mm 1 mps 709 mmHg 47%
    08:00 +2°C° 0 mm 1 mps 709 mmHg 45%
    09:00 +3°C° 0 mm 1 mps 709 mmHg 42%
    10:00 +5°C° 0 mm 1 mps 708 mmHg 40%
    11:00 +6°C° 0 mm 1 mps 708 mmHg 37%
    12:00 +8°C° 0 mm 1 mps 708 mmHg 34%
    13:00 +8°C° 0 mm 1 mps 707 mmHg 33%
    14:00 +8°C° 0 mm 1 mps 707 mmHg 33%
    15:00 +9°C° 0 mm 1 mps 707 mmHg 32%
    16:00 +7°C° 0 mm 1 mps 707 mmHg 36%
    17:00 +5°C° 0 mm 0 mps 707 mmHg 40%
    18:00 +4°C° 0 mm 0 mps 707 mmHg 43%
    19:00 +3°C° 0 mm 0 mps 707 mmHg 44%
    20:00 +4°C° 0 mm 1 mps 707 mmHg 45%
    21:00 +4°C° 0 mm 1 mps 707 mmHg 46%
    22:00 +4°C° 0 mm 1 mps 707 mmHg 47%
    23:00 +3°C° 0 mm 1 mps 707 mmHg 47%
    Show more